TimeEDT,TemperatureF,Dew PointF,Humidity,Sea Level PressureIn,VisibilityMPH,Wind Direction,Wind SpeedMPH,Gust SpeedMPH,PrecipitationIn,Events,Conditions,WindDirDegrees,DateUTC
12:10 AM,33.8,30.2,87,29.75,9.0,WSW,15.0,-,N/A,,Overcast,240,2013-03-12 04:10:00
12:54 AM,33.1,30.0,89,29.79,7.0,WSW,16.1,-,N/A,,Overcast,250,2013-03-12 04:54:00
1:07 AM,33.8,30.2,87,29.77,9.0,West,13.8,-,N/A,,Overcast,260,2013-03-12 05:07:00
1:54 AM,33.1,28.9,85,29.80,10.0,West,10.4,-,0.00,,Overcast,260,2013-03-12 05:54:00
2:08 AM,33.8,30.2,87,29.79,10.0,WSW,11.5,-,N/A,,Overcast,240,2013-03-12 06:08:00
2:22 AM,33.8,30.2,87,29.79,6.0,WSW,8.1,-,0.00,,Overcast,240,2013-03-12 06:22:00
2:31 AM,33.8,30.2,87,29.79,6.0,WSW,10.4,-,0.00,,Overcast,250,2013-03-12 06:31:00
2:39 AM,33.8,30.2,87,29.80,7.0,WSW,9.2,-,0.00,,Overcast,240,2013-03-12 06:39:00
2:54 AM,33.1,30.0,89,29.82,5.0,WSW,10.4,-,0.00,Rain,Light Rain,240,2013-03-12 06:54:00
2:58 AM,33.8,30.2,87,29.80,4.0,WSW,10.4,-,0.00,Rain,Light Freezing Rain,240,2013-03-12 06:58:00
3:05 AM,33.8,30.2,87,29.81,4.0,WSW,10.4,-,0.00,Rain,Light Freezing Rain,250,2013-03-12 07:05:00
3:29 AM,33.8,30.2,87,29.81,5.0,WSW,10.4,-,0.00,Rain,Light Freezing Rain,240,2013-03-12 07:29:00
3:54 AM,33.1,30.0,89,29.83,9.0,WSW,11.5,-,0.00,,Overcast,250,2013-03-12 07:54:00
4:14 AM,33.8,30.2,87,29.81,4.0,West,10.4,-,0.00,Rain,Light Freezing Rain,260,2013-03-12 08:14:00
4:54 AM,33.1,28.0,82,29.84,8.0,West,17.3,24.2,0.00,,Overcast,260,2013-03-12 08:54:00
5:54 AM,32.0,27.0,82,29.85,10.0,West,13.8,-,N/A,,Overcast,270,2013-03-12 09:54:00
6:28 AM,32.0,26.6,80,29.84,9.0,West,17.3,23.0,N/A,,Overcast,270,2013-03-12 10:28:00
6:54 AM,32.0,27.0,82,29.87,8.0,West,11.5,-,N/A,,Overcast,260,2013-03-12 10:54:00
7:54 AM,32.0,27.0,82,29.88,8.0,West,9.2,-,0.00,,Overcast,260,2013-03-12 11:54:00
8:54 AM,30.9,27.0,85,29.90,7.0,WSW,13.8,-,0.00,,Overcast,250,2013-03-12 12:54:00
9:54 AM,30.9,25.0,79,29.92,10.0,WSW,13.8,21.9,N/A,,Overcast,250,2013-03-12 13:54:00
10:54 AM,30.9,25.0,79,29.92,8.0,WSW,13.8,-,N/A,,Overcast,240,2013-03-12 14:54:00
11:54 AM,30.9,24.1,76,29.94,9.0,WSW,11.5,-,N/A,,Overcast,240,2013-03-12 15:54:00
12:54 PM,32.0,24.1,73,29.94,10.0,WSW,15.0,-,0.00,,Overcast,250,2013-03-12 16:54:00
1:54 PM,34.0,24.1,67,29.94,10.0,WSW,17.3,23.0,N/A,,Overcast,240,2013-03-12 17:54:00
2:20 PM,37.4,24.8,60,29.90,10.0,WSW,15.0,-,N/A,,Overcast,240,2013-03-12 18:20:00
2:54 PM,35.1,24.1,64,29.93,10.0,WSW,16.1,-,N/A,,Overcast,250,2013-03-12 18:54:00
3:54 PM,35.1,21.9,59,29.93,10.0,WSW,17.3,-,N/A,,Overcast,250,2013-03-12 19:54:00
4:54 PM,35.1,23.0,61,29.94,10.0,WSW,12.7,-,N/A,,Overcast,250,2013-03-12 20:54:00
5:54 PM,36.0,21.9,57,29.94,10.0,West,12.7,-,0.00,,Overcast,280,2013-03-12 21:54:00
6:54 PM,35.1,23.0,61,29.94,10.0,West,11.5,-,N/A,,Overcast,280,2013-03-12 22:54:00
7:04 PM,33.8,24.8,70,29.92,2.5,WSW,17.3,-,0.00,Snow,Light Snow,250,2013-03-12 23:04:00
7:08 PM,33.8,26.6,75,29.92,1.0,West,16.1,-,0.00,Snow,Light Snow,260,2013-03-12 23:08:00
7:15 PM,32.0,28.4,87,29.92,1.0,West,16.1,-,0.00,Snow,Light Snow,260,2013-03-12 23:15:00
7:24 PM,32.0,28.4,87,29.93,0.8,West,11.5,-,0.00,Snow,Light Snow,260,2013-03-12 23:24:00
7:28 PM,32.0,28.4,87,29.93,0.5,WSW,11.5,-,0.00,Fog-Snow,Snow,250,2013-03-12 23:28:00
7:31 PM,30.2,28.4,93,29.93,0.2,WSW,12.7,-,0.01,Fog-Snow,Heavy Snow,250,2013-03-12 23:31:00
7:43 PM,30.2,28.4,93,29.92,0.8,West,8.1,-,0.02,Snow,Light Snow,260,2013-03-12 23:43:00
7:45 PM,30.2,28.4,93,29.92,1.8,WSW,6.9,-,0.02,Snow,Light Snow,250,2013-03-12 23:45:00
7:47 PM,30.2,28.4,93,29.92,3.0,WSW,6.9,-,0.02,Snow,Light Snow,250,2013-03-12 23:47:00
7:54 PM,30.9,28.9,92,29.95,5.0,WSW,6.9,-,0.02,,Overcast,240,2013-03-12 23:54:00
8:06 PM,30.2,28.4,93,29.93,4.0,SW,6.9,-,0.00,Snow,Light Snow,230,2013-03-13 00:06:00
8:10 PM,30.2,28.4,93,29.93,3.0,SW,8.1,-,0.00,Snow,Light Snow,220,2013-03-13 00:10:00
8:34 PM,32.0,28.4,87,29.93,6.0,SW,9.2,-,0.00,,Overcast,230,2013-03-13 00:34:00
8:54 PM,32.0,28.9,88,29.96,6.0,SW,9.2,-,0.00,,Overcast,230,2013-03-13 00:54:00
9:37 PM,32.0,28.4,87,29.93,7.0,SW,9.2,-,0.00,Snow,Light Snow,230,2013-03-13 01:37:00
9:54 PM,30.9,28.9,92,29.96,3.0,SW,9.2,-,0.00,Snow,Light Snow,230,2013-03-13 01:54:00
10:20 PM,32.0,28.4,87,29.93,8.0,SW,10.4,-,0.00,,Overcast,230,2013-03-13 02:20:00
10:54 PM,32.0,26.1,79,29.96,10.0,West,17.3,-,0.00,,Overcast,270,2013-03-13 02:54:00
11:07 PM,30.2,26.6,86,29.94,1.8,West,19.6,27.6,0.00,Snow,Light Snow,280,2013-03-13 03:07:00
11:18 PM,28.4,24.8,86,29.95,3.0,West,17.3,32.2,0.00,Snow,Light Snow,280,2013-03-13 03:18:00
11:27 PM,28.4,24.8,86,29.95,5.0,West,12.7,-,0.00,Snow,Light Snow,280,2013-03-13 03:27:00
11:48 PM,28.4,24.8,86,29.95,1.8,West,13.8,23.0,0.00,Snow,Light Snow,270,2013-03-13 03:48:00
11:49 PM,28.9,26.1,89,29.98,1.8,West,13.8,23.0,0.00,Snow,Light Snow,280,2013-03-13 03:49:00
11:53 PM,28.4,26.6,93,29.95,1.2,West,13.8,-,0.00,Snow,Light Snow,270,2013-03-13 03:53:00